Regional Weather Roundup
Issued by NWS New Orleans/Baton Rouge, LA

Home | Current Version | Previous Version | Text Only | Print | Product List | Glossary On
Versions: 1 2 3 4 5 6 7 8 9 10 11 12 13 14 15 16 17 18 19 20 21 22 23 24 25 26 27
000
ASUS44 KLIX 291111
RWRLIX
NEW ORLEANS REGIONAL WEATHER ROUNDUP
NATIONAL WEATHER SERVICE NEW ORLEANS LA
600 AM CDT FRI APR 29 2016

NOTE: "FAIR" INDICATES FEW OR NO CLOUDS BELOW 12,000 FEET WITH NO
      SIGNIFICANT WEATHER AND/OR OBSTRUCTIONS TO VISIBILITY.
      SKY/WX - SKY CONDITION AND SIGNIFICANT WEATHER.
      TMP - AIR TEMPERATURE.     DP    - DEWPOINT TEMPERATURE.
      RH  - RELATIVE HUMIDITY.   PRES  - PRESSURE.
      HI  - HEAT INDEX.          WCI   - WIND CHILL INDEX.

*  THESE STATIONS ARE NOT NWS OR FAA STATIONS AND ARE NOT UNDER
   NWS QUALITY CONTROL.

LAZ038-040-048-061>063-065>067-069-291200-
SOUTHEAST LOUISIANA

CITY           SKY/WX    TMP DP  RH WIND       PRES   REMARKS
N.O. AUDUBON     N/A     73  73 100 MISG        N/A
N.O. INTL ARPT CLOUDY    75  72  90 SE9       29.91R FOG
N.O. LAKEFRONT CLOUDY    69  32  25 SE9       29.92R HAZE
N.O. DOWNTOWN* CLOUDY    74  72  93 VRB6      29.92R
RESERVE*       CLOUDY    74  73  93 SE3       29.91R FOG
SLIDELL        CLOUDY    71  71 100 E3        29.92R
BATON ROUGE    CLOUDY    72  70  93 E6        29.90S FOG
BOOTHVILLE     FOG       72  72 100 SE8       29.93R VSB 1
BELLE CHASSE   CLOUDY    74  72  93 SE10      29.91R FOG
BOGALUSA*      PTSUNNY   69  66  90 CALM      29.95R
GALLIANO*      CLOUDY    71  70  95 SE6       29.90S
NEW ROADS*     CLOUDY    73  71  96 SE6       29.89S FOG
GONZALES*      CLOUDY    72  72 100 SE3       29.90R FOG
HAMMOND*       CLEAR     68  64  88 CALM      29.92R
HOUMA*         MOCLDY    74  73  98 SE6       29.90R
PORT FOURCHON* PTSUNNY   75  73  94 SE14G23   29.90S FOG

$$

MSZ070-080>082-291200-
SOUTHERN MISSISSIPPI

CITY           SKY/WX    TMP DP  RH WIND       PRES   REMARKS
MCCOMB         CLOUDY    68  68 100 E3        29.93S FOG
GULFPORT       PTCLDY    71  68  90 SE9       29.93S
BILOXI         CLEAR     71  71 100 SE6       29.94S
PASCAGOULA     CLEAR     63  63 100 CALM      29.95S

$$

COASTAL OBSERVATIONS
LAKE AND NEARSHORE STATIONS

STATION/POSITION TIME  TEMP    WIND        PRES    WAVE
                       AIR SEA DIR/SP/G            HT/PER
                 (UTC) (F)     (DEG/KT/KT) (MB)    (FT/S)
PASCAGOULA       1000   74     120/ 10/ 12 1013.7
WAVELAND YACHT   1000   74 74  130/  9/ 11 1013.2
GRAND ISLE       1000   75 77  140/ 11/ 14 1012.1
SOUTHWEST PASS   1000          130/ 11/ 15   N/A
NEW CANAL        1000   72 74  120/  1/  3 1011.8
SHELL BEACH      1000   73 75  120/  9/ 10 1012.9

OFFSHORE STATIONS

STATION/POSITION TIME  TEMP    WIND        PRES    WAVE
                       AIR SEA DIR/SP/G            HT/PER
                 (UTC) (F)     (DEG/KT/KT) (MB)    (FT/S)
64 S DAUPHIN ISL 1000   74 74  110/  8/ 10 1013.9

$$





USA.gov is the U.S. government's official web portal to all federal, state and local government web resources and services.